Regional Weather Roundup
Issued by NWS

Home | Current Version | Previous Version | Graphics & Text | Print | Product List | Glossary Off
Versions: 1 2 3 4 5 6 7 8 9 10 11 12 13 14 15 16 17 18 19 20 21 22 23 24 25 26 27 28 29 30 31 32 33 34 35 36 37 38 39 40 41 42 43 44 45 46 47 48 49 50

000
ASUS43 KLSX 171057
RWRMO

WEATHER SUMMARY FOR MISSOURI
NATIONAL WEATHER SERVICE SPRINGFIELD MO
500 AM CST FRI NOV 17 2017

NOTE: "FAIR" INDICATES FEW OR NO CLOUDS BELOW 12,000 FEET WITH NO
       SIGNIFICANT WEATHER AND/OR OBSTRUCTIONS TO VISIBILITY.
       CURRENT SKY AND/OR WEATHER CONDITIONS ARE NOT AVAILABLE FOR
       CHILLICOTHE AND FARMINGTON.

MOZ001>031-035>038-043-044-053-054-171200-
...NORTHERN AND WESTERN MISSOURI...

CITY           SKY/WX    TMP DP  RH WIND       PRES   REMARKS
KANSAS CTY INT CLOUDY    54  47  77 S18       29.80F
LEE`S SUMMIT   CLOUDY    55  48  77 S14       29.84F
ST JOSEPH      CLOUDY    52  43  71 S13       29.79F
CHILLICOTHE      N/A     47  36  65 SE9G17    29.88F

$$
MOZ066>068-077>081-088>096-101>105-171200-
...SOUTHWEST MISSOURI...

CITY           SKY/WX    TMP DP  RH WIND       PRES   REMARKS
SPRINGFIELD    CLOUDY    51  44  77 SE20      29.95F
JOPLIN         CLOUDY    60  56  86 S17G25    29.89F

$$
MOZ032>034-039>042-045>050-055>058-069>072-171200-
...CENTRAL MISSOURI...

CITY           SKY/WX    TMP DP  RH WIND       PRES   REMARKS
COLUMBIA       NOT AVBL
JEFFERSON CITY CLOUDY    45  36  70 E10       29.98F
ROLLA          CLOUDY    45  37  73 S15G23    30.00F
SEDALIA        CLOUDY    51  43  74 SE13      29.91F
WARRENSBURG    CLOUDY    50  41  71 SE10      29.87F

$$
MOZ051-052-059>065-171200-
...EAST CENTRAL MISSOURI...

CITY           SKY/WX    TMP DP  RH WIND       PRES   REMARKS
ST LOUIS INTL  CLOUDY    34  32  92 SE9       30.11R FOG     WCI  27

$$
MOZ072>076-082>087-097>100-106>115-171200-
...SOUTH CENTRAL AND SOUTHEAST MISSOURI...

CITY           SKY/WX    TMP DP  RH WIND       PRES   REMARKS
CAPE GIRARDEAU CLOUDY    32  29  88 SE6       30.14F FOG     WCI  26
POPLAR BLUFF   CLOUDY    36  34  92 NE3       30.13F FOG
WEST PLAINS    CLOUDY    44  37  76 SE6       30.07F

$$



USA.gov is the U.S. government's official web portal to all federal, state and local government web resources and services.